Notices

What's New in latest Release from April 7th, 2021:

- Updated Glossary, including Speed of Maximum Gust, and Total Hourly Precipitation

- Updated national and regional climate services offices contacts and prices information

- Addition of station inventory lists for 1981-2010, 1971-2000, and 1961-1990 Normals.

If you haven't already, please take our survey and provide feedback about our website: https://eccc.sondage-survey.ca/f/LanguageSelection.aspx?s=442ca660-fcf1-47c0-95a9-59707d6fd709

Hourly Data Report for November 14, 2019

PINAWA
MANITOBA
Current Station Operator: ECCC - MSC

50°10'38.020" N
96°03'53.000" W
268.00 m
503B1ER
71448
WEA

Download Data

Hourly Data (November 2019)
Hourly Data Report for November 14, 2019
TIME
LST
Temp Definition
°C
Dew Point Definition
°C
Rel Hum Definition
%
Precip. Amount Definition
mm

Wind Dir Definition
10's deg

Wind Spd Definition
km/h
Visibility Definition
km
Stn Press Definition
kPa
Hmdx Definition


Wind Chill Definition


Weather Definition


00:00 -9.1 LegendMM LegendMM 0.0 26 7   98.68   -13 LegendNANA
01:00 -9.3 LegendMM LegendMM 0.0 26 6   98.67   -13 LegendNANA
02:00 -9.7 LegendMM LegendMM 0.0 24 6   98.64   -13 LegendNANA
03:00 -10.8 LegendMM LegendMM 0.0 23 7   98.60   -15 LegendNANA
04:00 -12.2 LegendMM LegendMM 0.0 21 5   98.54   -15 LegendNANA
05:00 -13.0 LegendMM LegendMM 0.0 19 6   98.46   -17 LegendNANA
06:00 -12.5 LegendMM LegendMM 0.0 20 7   98.34   -17 LegendNANA
07:00 -12.1 LegendMM LegendMM 0.0 18 8   98.22   -17 LegendNANA
08:00 -11.1 LegendMM LegendMM 0.0 19 6   98.11   -15 LegendNANA
09:00 -9.2 LegendMM LegendMM 0.0 23 6   98.08   -13 LegendNANA
10:00 -7.1 LegendMM LegendMM 0.0 25 9   98.13   -11 LegendNANA
11:00 -5.6 LegendMM LegendMM 0.0 27 13   98.18   -11 LegendNANA
12:00 -3.8 LegendMM LegendMM 0.0 32 24   98.26   -11 LegendNANA
13:00 -4.5 LegendMM LegendMM 0.0 33 18   98.33   -11 LegendNANA
14:00 -4.6 LegendMM LegendMM 0.0 32 26   98.42   -12 LegendNANA
15:00 -4.4 LegendMM LegendMM 0.0 33 15   98.48   -10 LegendNANA
16:00 -4.7 LegendMM LegendMM 0.0 33 17   98.59   -11 LegendNANA
17:00 -5.9 LegendMM LegendMM 0.0 34 9   98.66   -10 LegendNANA
18:00 -7.0 LegendMM LegendMM 0.0 33 6   98.71   -10 LegendNANA
19:00 -7.3 LegendMM LegendMM 0.0 32 7   98.77   -11 LegendNANA
20:00 -7.9 LegendMM LegendMM 0.0 28 5   98.87   -11 LegendNANA
21:00 -8.6 LegendMM LegendMM 0.0 28 4   98.92   -11 LegendNANA
22:00 -11.2 LegendMM LegendMM 0.0 26 2   98.96   -12 LegendNANA
23:00 -10.3 LegendMM LegendMM 0.0 9 1   98.98   -11 LegendNANA

Notes on Data Quality.

Legend

  • E = Estimated
  • M = Missing
  • NA = Not Available*
  • [empty] = Indicates an unobserved value
Date modified: